LRIA

Details ICAO LRIA (IAS)
Name IASI
Region Romania
Timezone Europe/Bucharest (UTC+3.0)
Plans Departing 60
Arriving 63
Stats Elevation 397 ft / 121 m (AMSL)
Location 47.178490° 27.620632°
Runways 1
Magnetic Variation 6.364° E
Sunrise 2018-05-23 02:26:29 UTC / 2018-05-23 05:26:29 Local
Sunset 2018-05-23 17:48:53 UTC / 2018-05-23 20:48:53 Local
Advertisement - Login to hide

Runways

ID Width Length Bearing (true) Bearing (mag) Surface Threshold Offset Overrun Length
15 98 ft / 30 m 5,841 ft / 1,780 m 154.46° 148.10° Concrete 0 ft / 0 m 0 ft / 0 m
33 98 ft / 30 m 5,841 ft / 1,780 m 334.46° 328.10° Concrete 0 ft / 0 m 0 ft / 0 m

Approach Navaids

Runway Type Ident Frequency Range Bearing (true) Bearing (mag) Slope Elevation
15 Localiser IIS 109.10 MHz 18 nm / 33 km 154.92° 148.56° - 397 ft / 121 m (AMSL)
15 Glidescope IIS 109.10 MHz 10 nm / 19 km 154.46° 148.10° 3.00° 397 ft / 121 m (AMSL)
15 DME IIS 109.10 MHz 18 nm / 33 km - - - 500 ft / 152 m (AMSL)

Map

Weather


0- 5 10 15 20 25 30 35+ Temperature / ° C

Clouds and Precipitation
Forecast for 2018-05-23 00:00 UTC. Updated 3 hours ago

Ground ~20,000 ft ~40,000 ft Winds

METAR

LRIA 230200Z 10006KT CAVOK 14/08 Q1021

TAF

Not found

Frequencies

Tower 119.20 MHz TWR
Approach 118.80 MHz PRECISION
Approach 119.20 MHz APP
Warning: Do not use this data for real-world aviation or navigation. No guarantee of current accuracy is given.